Location: Knobs
(40.8333°S, 175.2333°E)
Time: 01:50:49
(UTC+00:00)

Cosmos 2034 Rocket - Pass Details

Date: 12 June 2024
Orbit: 958 x 999 km, 82.9° (Epoch: 22 July)

Event Time Altitude Azimuth Distance (km) Brightness Sun altitude
Rises 18:12:11 0° 187° (S) 3,701 6.8 -16.2°
Reaches altitude 10° 18:14:44 10° 185° (S) 2,742 6.1 -15.7°
Maximum altitude 18:21:01 78° 98° (E) 998 4.2 -14.6°
Drops below altitude 10° 18:27:11 10° 11° (N) 2,692 6.7 -13.5°
Sets 18:29:40 0° 9° (N) 3,629 7.4 -13.0°
